Location: Ariel
(45.9570°N, 122.5700°W)
Time: 19:10:46
(UTC-07:00)

Vanguard 3 - Pass Details

Date: 31 August 2019
Orbit: 508 x 3263 km, 33.4° (Epoch: 14 September)

Event Time Altitude Azimuth Distance (km) Brightness Sun altitude
Rises 19:50:56 0° 265° (W) 4,737 12.8 -0.9°
Reaches altitude 10° 19:55:58 10° 248° (WSW) 3,164 11.1 -1.7°
Maximum altitude 20:00:11 16° 213° (SSW) 2,260 9.7 -2.4°
Drops below altitude 10° 20:03:28 10° 175° (S) 2,322 9.3 -3.0°
Sets 20:06:21 0° 152° (SSE) 2,966 9.6 -3.5°
